www.pogodaiklimat.ru

Погода и климат >> Архив погоды >> Боливия >> San Matias


ПОГОДА в San Matias

  • Прогноз погоды в San Matias
  • Монитор погоды в San Matias
  • Климат города

АРХИВ ПОГОДЫ в San Matias

Время (UTC), дата Ветер
(напр.,м/с)
 
Видим.   Явления Облачность Т
(С)
Тd
(С)
f
(%)
Тe
(С)
Тes
(С)
Комфортность P
(гПа)
Po
(гПа)
Тmin
(С)
Tmax
(С)
R
(мм)
S
(см)
12 16.03 штиль 0 20 км осадки на расстоянии 8/8 600 м
[Cb cap]
+25.0 +23.9 94 +34 +36 очень
душно
1014.7 1004.2 +23.5 0.6
15 16.03 штиль 0 30 км 5/5 600 м
[Cb cap Ac trans]
+29.0 +25.3 80 +42 +55 опасность
перегрева
1014.2 1003.8
18 16.03 штиль 0 30 км 3/3 600 м
[Cb cap]
+33.0 +25.1 63 +47 +61 опасность
перегрева
1010.5 999.8
21 16.03 штиль 0 15 км гроза без осадков туман 10/5 600 м
[Cb cap Ci ing]
+27.7 +24.6 83 +39 +40 очень
душно
1010.8 999.8 +33.3
12 17.03 Ю 5 20 км {гроза, дождь} 10/10 400 м
[Sc]
+23.4 +21.6 90 +32 +32 очень
душно
1016.8 1006.0 +22.5 53
15 17.03 Ю 3 20 км 10/10 360 м
[Sc]
+25.4 +21.9 81 +33 +33 очень
душно
1017.8 1006.7
18 17.03 ЮЗ 4 30 км 10/10 450 м
[Sc]
+26.8 +22.9 79 +36 +36 очень
душно
1015.0 1004.3
21 17.03 Ю 3 30 км 10/10 400 м
[Sc]
+24.8 +22.6 88 +33 +33 очень
душно
1014.0 1003.0 +27.0
12 18.03 Ю 2 30 км 10/9 600 м
[Sc As op]
+22.4 +20.3 88 +29 +29 очень
душно
1018.1 1006.8 +21.3
15 18.03 ЮЗ 2 30 км 10/9 600 м
[Sc As op]
+24.4 +20.1 77 +30 +30 очень
душно
1019.0 1007.4
18 18.03 Ю 3 30 км 10/10 500 м
[Sc]
+24.5 +20.1 76 +30 +30 очень
душно
1016.5 1005.4
21 18.03 штиль 0 30 км 10/10 500 м
[Sc]
+24.0 +21.2 84 +30 +30 очень
душно
1015.3 1004.0 +25.3
12 19.03 штиль 0 30 км 10/0 2000 м
[As op]
+24.0 +22.0 89 +31 +33 очень
душно
1017.4 1006.5 +22.0
15 19.03 штиль 0 30 км 9/9 500 м
[Sc]
+27.0 +22.0 74 +35 +38 очень
душно
1017.4 1006.6
18 19.03 СЗ 3 30 км 10/10 500 м
[Sc]
+28.0 +22.5 72 +37 +37 очень
душно
1014.4 1004.0
21 19.03 штиль 0 30 км 4/0 2000 м
[Ac trans]
+28.4 +23.0 73 +38 +39 очень
душно
1013.4 1003.0 +30.0
12 20.03 штиль 0 30 км 8/4 500 м
[Sc Ac trans]
+24.5 +23.5 94 +33 +36 очень
душно
1017.4 1007.0 +23.0
15 20.03 штиль 0 30 км 10/8 500 м
[Sc As op]
+26.0 +24.0 89 +36 +37 очень
душно
1018.5 1006.5
18 20.03 штиль 0 30 км 5/5 500 м
[Cu med, cong]
+30.0 +24.7 73 +43 +52 опасность
перегрева
1015.0 1004.0
21 20.03 штиль 0 30 км 6/6 500 м
[Cu med, cong]
+31.0 +25.8 74 +46 +47 опасность
перегрева
1013.5 1002.5 +33.0
12 21.03 штиль 0 30 км 10/4 500 м
[Cu med, cong Ac inh]
+25.5 +24.2 93 +35 +37 очень
душно
1017.4 1007.0 +23.0
15 21.03 штиль 0 30 км 9/4 500 м
[Cu med, cong Ac trans]
+29.0 +24.7 78 +41 +49 опасность
перегрева
1018.3 1007.0
18 21.03 штиль 0 30 км 10/8 500 м
[Cu med, cong Ci]
+32.5 +24.6 63 +45 +48 опасность
перегрева
1015.0 1004.0
21 21.03 штиль 0 30 км 9/5 500 м
[Cu med, cong Ci]
+32.0 +24.7 65 +45 +45 опасность
перегрева
1012.4 1002.0 +33.0
12 22.03 штиль 0 30 км 10/0 2000 м
[As op]
+23.0 +22.3 96 +31 +33 очень
душно
1019.0 1008.0 +22.0
15 22.03 штиль 0 30 км 10/0
[Ci]
+27.0 +22.8 78 +36 +56 опасность
солнечного
удара
1019.4 1008.0
18 22.03 штиль 0 30 км 10/3 500 м
[Cu hum Ci]
+30.0 +24.0 70 +41 +52 опасность
перегрева
1016.4 1006.0
21 22.03 штиль 0 30 км 4/4 500 м
[Cu hum]
+30.0 +24.7 73 +43 +43 опасность
перегрева
1014.4 1003.5 +32.0

 

Местоположение метеостанции San Matias (Боливия): широта -16.33 долгота -58.38 высота над уровнем моря 124 м.

В архиве по умолчанию представлена погода в San Matias за последнюю неделю. Архивные данные за месяц целиком и за предыдущие месяцы, начиная с января 2011 года, Вы можете получить, выбрав интересующий диапазон дат из раскрывающегося списка и нажав кнопку "Ввод!".

Внимание! Время в таблицах - всемирное. Для получения местного времени необходимо прибавить поправку, которая в San Matias равна -4 ч.

Смотрите также архив погоды в соседних городах и на ближайших метеорологических станциях:

Погода в Caceres (Бразилия) (81 км)
Погода в Cuiaba (Бразилия) (255 км)
Погода в Robore (Боливия) (265 км)
Погода в San Ignacio De Vela (Боливия) (275 км)
Погода в Diamantino (Бразилия) (298 км)
Погода в San Jose De Chiquit (Боливия) (299 км)
Погода в Puerto Suarez (Боливия) (301 км)
Погода в Concepcion (Боливия) (388 км)
Погода в Poxoreo (Бразилия) (431 км)
Погода в San Javier (Боливия) (436 км)

Пояснения к столбцам:

Ветер - указаны скорость ветра в м/с - средняя за 10 мин, порывы в срок и между сроками (в фигурных скобках) и направление, откуда дует ветер: С - северный, СВ - северо-восточный, В - восточный, ЮВ - юго-восточный, Ю - южный, ЮЗ - юго-западный, З - западный, СЗ - северо-западный.
Видимость - горизонтальная дальность видимости в метрах или километрах. При видимости от 1 до 10 км при отсутствии осадков обычно наблюдается дымка, при ухудшении видимости до 1 км и менее - туман. В сухую погоду видимость может ухудшаться дымом, пылью или мглою.
Явления - указаны атмосферные явления, наблюдавшиеся в срок или в последний час перед сроком; фигурными скобками обозначены явления, наблюдавшиеся между сроками (за 1-3 часа до срока); квадратными скобками обозначены град или гололедные отложения с указанием их диаметра в мм.
Облачность - указаны через наклонную черту общая и нижняя облачность в баллах и высота нижней границы облаков в метрах; квадратными скобками обозначены формы облаков: Ci - перистые, Cs - перисто-слоистые, Cc - перисто-кучевые, Ac - высококучевые, As - высокослоистые, Sc - слоисто-кучевые, Ns - слоисто-дождевые, Cu - кучевые, Cb - кучево-дождевые. Подробнее классификацию облаков см. в Атласе облаков (PDF).
T - Температура воздуха - температура, измеренная на высоте 2 м над землей.
Td - Температура точки росы - температура, при понижении до которой содержащийся в воздухе водяной пар достигнет насыщения.
f - Относительная влажность воздуха - влажноcть воздуха, измеренная на высоте 2 м над землей.
Te - Эффективная температура - температура, которую ощущает одетый по сезону человек в тени. Характеристика душности погоды. При расчете учитывается влияние влажности воздуха и скорости ветра на теплоощущения человека.
Tes - Эффективная температура на солнце - температура, которую ощущает человек, с поправкой на солнечный нагрев. Характеристика знойности погоды. Зависит от высоты солнца над горизонтом, облачности и скорости ветра. Ночью, в пасмурную погоду, а также при ветре 12 м/с и более поправка равна нулю.
P - Атмосферное давление - приведенное к уровню моря атмосферное давление.
Po - Атмосферное давление - измеренное на уровне метеостанции атмосферное давление.
Tmin - Минимальная температура - минимум температуры воздуха на высоте 2 м над землей.
Tmax - Максимальная температура - максимум температуры воздуха на высоте 2 м над землей.
R - Количество осадков - Количество выпавших осадков, мм. При наведении курсора мыши на число - период времени, за который выпало указанное количество осадков.
S - Снежный покров - Высота снежного покрова, см. При наведении курсора мыши на число - состояние снежного покрова и степень покрытия местности в баллах.